Wind_Speed
6 4 3 2 1 2 3 4 5 6 7 8 9 10 11 11 11 12 12 13 13 13 12 12 11 11 10 10 9 8 7 6 5 6 7 7 8 10 12 13 15 17 19
7 5 4 3 1 1 2 3 3 5 6 7 8 9 10 10 11 11 12 12 13 13 12 12 11 11 11 11 10 9 9 9 8 8 8 9 10 11 12 13 14 16 18
8 6 5 4 3 2 2 3 3 4 6 6 7 8 9 10 10 11 12 12 13 13 12 12 11 11 12 12 12 12 11 11 11 10 11 11 12 13 14 15 16 17 18
9 7 6 5 4 4 4 4 4 5 6 7 8 9 10 10 11 11 12 13 13 13 12 12 12 13 13 13 14 14 14 14 14 13 13 14 15 16 16 17 18 19 20
10 9 7 7 6 6 6 6 6 7 7 8 10 11 11 12 12 13 14 14 15 15 14 14 14 15 16 16 16 17 17 17 17 17 17 17 18 18 19 19 20 21 22
10 10 9 8 8 8 8 8 8 9 9 10 11 12 13 14 15 15 16 16 17 17 17 17 17 18 18 19 19 20 20 21 21 21 21 21 21 22 22 23 23 24 24
11 11 10 10 10 10 10 10 10 10 11 12 13 14 15 16 17 18 18 19 19 19 20 20 21 22 22 23 23 24 24 24 24 24 25 25 25 26 26 26 27 27 27
12 12 11 11 11 12 12 12 12 13 13 15 16 17 18 19 20 21 21 22 22 22 23 23 24 25 26 26 27 27 27 27 27 27 28 28 29 30 29 29 30 30 30
13 13 13 13 13 14 14 14 15 16 16 17 19 20 21 22 23 24 25 25 25 25 26 27 28 28 29 30 30 29 29 29 30 30 30 30 30 30 31 32 32 33 33
15 15 15 15 15 16 16 17 17 18 19 20 22 23 24 25 26 27 27 27 27 28 29 30 31 31 31 32 32 32 32 33 33 33 33 32 32 32 33 34 35 36 36
17 17 17 17 17 18 18 19 20 21 22 23 24 26 27 28 29 29 30 30 30 31 32 33 33 34 33 34 34 34 35 35 35 35 34 34 34 34 35 36 37 38 38
19 19 19 20 20 20 21 22 22 23 25 26 27 28 30 30 31 31 31 32 33 33 34 35 36 36 35 35 36 37 37 37 37 37 37 37 37 37 37 38 39 41 41
22 22 22 22 23 23 24 25 26 26 28 29 30 31 32 33 33 34 34 35 35 36 36 37 37 37 37 37 38 39 39 39 39 39 39 39 40 40 40 41 42 43 44
24 24 25 25 26 27 27 28 29 30 31 32 33 34 35 35 36 37 37 37 38 38 38 39 39 38 39 39 40 40 41 41 42 42 42 42 42 42 43 44 46 47 47
27 27 28 29 29 30 31 32 33 34 35 35 36 37 37 38 38 39 39 39 40 40 41 41 41 41 41 41 42 42 43 43 43 43 44 44 45 45 46 48 49 50 51
30 30 31 32 33 33 34 35 36 37 37 38 39 39 40 40 40 41 41 41 42 42 42 42 42 43 43 44 44 44 45 45 46 46 47 48 49 50 51 52 53 53 54
33 33 34 35 35 36 37 37 38 39 40 41 41 41 42 42 43 43 43 44 43 44 44 44 45 45 46 46 47 47 47 48 49 50 51 52 53 54 55 55 56 56 57
35 36 36 37 38 38 39 40 41 42 42 42 43 44 44 45 45 45 45 46 46 46 46 46 47 47 48 49 49 49 50 51 53 54 55 56 57 57 57 57 58 58 59
38 38 39 40 41 42 42 43 43 43 44 44 45 46 46 46 47 47 47 47 48 48 48 49 49 50 51 51 52 53 54 55 56 57 58 59 59 59 59 60 60 60 60
40 41 42 43 43 43 44 44 45 45 46 46 47 47 47 48 48 48 49 49 49 50 51 51 52 52 53 54 55 56 57 58 59 60 61 61 61 61 61 61 61 61 60
42 43 44 44 45 45 46 47 47 47 48 48 48 49 49 50 50 50 50 51 52 52 53 53 54 55 56 57 58 59 61 62 62 63 63 62 62 62 62 61 61 59 58
45 46 46 47 47 48 48 49 49 49 50 50 51 51 51 52 52 52 53 54 55 56 56 57 58 59 60 61 62 63 64 64 64 63 63 62 62 61 60 59 59 58 58
47 48 48 49 50 50 51 51 52 52 52 53 53 54 54 55 55 56 56 57 58 59 60 61 62 63 63 64 65 65 65 64 64 63 63 61 60 59 58 57 56 56 55
50 51 51 52 52 52 53 53 54 54 54 55 55 56 57 57 58 58 59 60 61 62 63 64 64 64 65 66 66 65 64 64 64 63 61 60 58 57 56 56 55 54 53
52 53 53 54 54 55 55 55 56 56 56 57 58 58 59 59 60 60 61 62 63 65 65 65 65 65 66 66 66 65 64 63 62 61 60 58 56 56 56 55 54 52 51
53 54 54 55 55 56 56 57 57 58 58 59 60 60 61 61 62 63 64 65 66 66 66 66 66 66 66 65 64 63 62 61 60 59 58 57 55 54 53 53 51 50 48
Wind_Direction
199 195 189 172 107 44 25 24 28 26 24 23 22 21 20 20 20 20 21 22 23 22 23 22 21 20 18 16 13 8 359 344 323 307 293 276 265 260 256 253 252 250 248
205 205 206 206 220 325 351 360 6 8 8 9 10 11 12 12 14 13 12 11 11 10 10 10 9 7 4 0 357 351 345 337 324 311 300 290 280 271 263 261 260 259 256
210 212 216 221 239 275 304 321 335 346 352 356 357 359 359 359 359 359 359 359 358 358 359 359 358 356 354 349 345 341 334 328 320 308 296 290 285 279 271 268 266 264 261
214 218 223 231 245 265 282 296 309 321 333 340 342 343 343 343 342 344 344 345 345 346 346 344 343 341 339 337 333 329 325 320 315 309 300 292 286 282 276 271 269 268 266
220 224 230 238 250 263 276 288 297 304 312 321 328 331 332 331 330 331 331 333 334 335 334 331 329 328 325 324 323 320 317 313 309 304 300 294 288 284 279 275 273 272 270
225 231 237 245 253 263 272 281 289 296 303 311 318 321 323 324 324 323 323 324 325 325 324 323 321 321 319 317 315 314 312 308 305 302 298 293 287 283 279 276 274 273 272
231 236 242 250 257 264 271 279 286 293 299 306 311 314 316 317 318 318 317 317 317 317 317 317 316 315 314 313 312 310 308 306 304 301 297 292 287 282 280 276 273 272 272
237 241 248 255 261 265 270 277 285 292 296 301 305 308 310 311 312 313 311 310 310 310 310 311 312 312 310 309 309 307 306 304 303 301 297 292 287 283 279 276 273 272 272
242 248 254 260 265 268 272 278 284 290 294 298 301 304 306 307 307 307 307 307 306 306 307 308 308 309 308 307 307 305 305 303 301 299 296 292 288 284 279 276 274 273 274
247 252 258 263 267 270 274 279 284 288 292 296 299 301 303 305 305 304 304 304 304 303 304 305 306 307 306 306 305 303 302 302 301 298 295 291 287 285 281 278 276 275 275
251 256 260 264 268 272 277 280 285 289 292 295 297 300 302 303 304 303 302 302 302 303 303 303 304 305 304 304 304 302 301 301 300 298 295 292 289 286 283 280 279 278 277
255 260 264 268 272 275 279 282 286 289 292 294 296 299 300 301 303 302 301 301 302 302 302 302 303 302 302 302 302 301 300 299 299 297 294 292 290 287 284 281 281 280 279
259 264 267 271 274 277 280 283 286 289 291 294 296 297 299 300 300 301 301 300 300 301 301 301 302 301 300 300 300 300 299 298 297 296 295 293 291 287 285 282 282 280 279
263 267 270 273 276 279 281 284 286 288 291 293 294 296 297 298 299 299 300 299 299 300 301 301 301 301 299 299 299 299 299 298 297 296 295 293 291 288 286 284 283 281 280
266 269 272 275 278 280 282 284 287 288 290 292 293 295 296 297 298 298 298 298 298 299 300 301 301 301 300 299 299 300 300 299 298 297 296 293 292 289 287 285 284 283 282
268 270 273 276 279 281 283 285 286 288 290 291 293 294 295 296 296 297 298 298 298 298 299 300 300 301 300 300 299 299 299 298 298 297 296 294 293 291 290 288 286 285 284
269 272 275 277 279 282 283 285 286 288 289 291 292 293 294 295 296 296 297 297 297 297 298 298 299 299 300 299 299 299 299 299 298 297 297 296 294 293 292 290 288 287 286
271 273 276 277 280 282 283 285 287 288 289 290 291 292 293 295 295 296 296 296 297 297 297 298 298 298 299 299 298 298 298 299 299 299 298 298 297 294 293 291 290 289 287
273 275 276 278 280 282 284 285 286 288 289 290 291 292 293 294 294 295 296 296 296 297 297 298 298 298 298 298 298 299 299 299 299 298 298 298 297 295 293 292 290 289 288
273 275 277 279 281 282 284 285 286 288 289 290 290 291 292 293 294 294 295 295 296 296 297 297 298 298 298 299 299 299 299 299 299 299 298 297 296 295 292 291 290 289 287
274 276 278 279 281 282 284 285 286 287 288 289 290 291 291 292 293 293 294 295 295 296 297 297 298 299 299 299 299 299 299 299 299 298 297 296 295 294 292 291 290 289 288
275 276 278 279 281 283 284 285 286 287 288 289 290 290 291 291 292 293 294 294 295 296 297 297 298 299 299 299 299 299 299 299 299 298 297 295 294 294 293 291 290 289 287
276 277 278 280 281 282 284 285 286 287 288 288 289 290 291 291 292 293 293 294 295 296 296 297 298 298 298 299 299 299 299 299 298 298 297 295 294 294 293 291 290 289 288
277 278 279 280 281 282 283 284 286 287 287 288 289 290 290 291 292 293 293 294 295 295 296 297 297 298 298 299 299 299 298 298 298 297 296 295 294 293 293 292 291 289 288
277 278 279 280 281 282 283 284 285 286 287 288 289 290 291 291 292 293 294 295 295 296 297 297 297 298 298 298 298 298 297 297 297 296 295 293 293 293 292 292 291 289 287
277 278 279 280 281 282 283 284 285 286 287 288 289 289 290 291 292 293 294 295 295 296 296 297 297 297 298 298 298 297 297 296 295 295 293 292 292 292 292 291 291 288 285
Height
5881 5881 5882 5882 5881 5881 5881 5880 5879 5878 5876 5875 5873 5872 5870 5868 5866 5864 5863 5861 5859 5857 5855 5853 5852 5850 5849 5848 5846 5845 5845 5844 5843 5843 5843 5843 5843 5843 5843 5844 5844 5845 5846
5880 5880 5881 5881 5881 5880 5880 5879 5879 5878 5876 5875 5873 5872 5870 5868 5867 5865 5863 5861 5859 5857 5855 5854 5852 5850 5849 5848 5846 5845 5844 5842 5842 5841 5840 5840 5840 5840 5840 5840 5841 5841 5842
5878 5879 5879 5879 5879 5879 5879 5879 5878 5877 5876 5874 5873 5872 5870 5868 5866 5865 5863 5861 5859 5857 5855 5853 5851 5850 5848 5847 5845 5843 5842 5840 5839 5838 5838 5837 5837 5836 5836 5836 5836 5836 5837
5876 5877 5877 5878 5878 5878 5878 5877 5876 5876 5875 5873 5872 5871 5869 5867 5866 5864 5862 5860 5858 5856 5854 5852 5850 5848 5847 5845 5843 5841 5839 5837 5836 5835 5834 5833 5832 5832 5832 5832 5832 5831 5832
5874 5875 5875 5876 5876 5876 5876 5875 5875 5874 5873 5872 5870 5869 5867 5866 5864 5862 5860 5858 5856 5854 5852 5850 5848 5846 5844 5842 5840 5837 5835 5833 5832 5830 5829 5828 5827 5826 5826 5826 5825 5825 5825
5872 5872 5873 5873 5873 5873 5873 5873 5872 5871 5870 5869 5868 5867 5865 5863 5861 5859 5857 5855 5853 5851 5849 5847 5845 5843 5840 5838 5835 5832 5830 5827 5825 5823 5822 5821 5820 5819 5818 5818 5818 5818 5818
5869 5869 5870 5870 5871 5871 5870 5870 5869 5868 5867 5866 5865 5864 5862 5860 5858 5856 5854 5851 5849 5847 5845 5843 5840 5838 5835 5832 5829 5826 5823 5820 5817 5815 5814 5812 5811 5810 5810 5809 5809 5809 5809
5865 5866 5867 5867 5867 5867 5867 5866 5866 5865 5864 5863 5861 5860 5858 5856 5854 5851 5849 5846 5844 5842 5840 5837 5835 5832 5829 5826 5823 5819 5815 5812 5809 5807 5804 5803 5801 5800 5800 5799 5799 5799 5799
5862 5862 5863 5863 5863 5863 5863 5862 5862 5861 5860 5858 5857 5855 5853 5851 5848 5846 5843 5840 5838 5836 5834 5831 5828 5825 5822 5818 5815 5811 5807 5804 5800 5797 5795 5793 5791 5790 5789 5789 5789 5789 5789
5857 5858 5858 5859 5859 5859 5858 5858 5857 5856 5855 5853 5851 5849 5847 5845 5842 5839 5836 5834 5832 5829 5827 5824 5821 5817 5814 5810 5806 5802 5798 5795 5791 5788 5785 5783 5781 5780 5779 5778 5777 5777 5777
5853 5853 5854 5854 5854 5853 5853 5852 5851 5850 5849 5847 5846 5843 5841 5838 5835 5832 5829 5826 5824 5821 5819 5816 5813 5809 5805 5801 5797 5793 5789 5785 5781 5778 5775 5773 5771 5769 5767 5766 5765 5765 5764
5847 5848 5848 5848 5848 5847 5847 5846 5845 5844 5842 5841 5839 5836 5834 5831 5828 5825 5822 5819 5816 5813 5810 5807 5804 5800 5796 5792 5788 5783 5779 5775 5772 5768 5765 5763 5760 5758 5756 5755 5753 5752 5751
5841 5841 5842 5842 5841 5841 5840 5839 5838 5837 5835 5833 5831 5829 5826 5823 5820 5817 5814 5811 5808 5804 5801 5798 5794 5790 5786 5782 5778 5774 5769 5765 5762 5758 5755 5752 5749 5746 5744 5743 5741 5739 5738
5834 5834 5834 5834 5834 5833 5833 5831 5830 5829 5827 5825 5822 5820 5817 5814 5811 5808 5805 5802 5798 5795 5792 5788 5784 5780 5776 5772 5768 5763 5759 5754 5750 5747 5743 5740 5737 5734 5732 5729 5727 5725 5723
5827 5827 5827 5827 5826 5825 5824 5823 5821 5820 5818 5816 5813 5810 5808 5805 5801 5798 5795 5792 5788 5785 5781 5778 5774 5770 5766 5761 5757 5753 5748 5744 5739 5735 5731 5728 5725 5722 5719 5715 5712 5710 5707
5819 5819 5818 5818 5817 5816 5815 5814 5812 5810 5808 5805 5803 5800 5797 5794 5790 5787 5784 5780 5777 5773 5770 5766 5762 5758 5754 5750 5745 5741 5737 5732 5728 5724 5720 5715 5712 5708 5704 5700 5696 5693 5690
5810 5809 5809 5808 5807 5806 5805 5803 5801 5799 5797 5794 5791 5789 5786 5783 5779 5776 5772 5769 5765 5761 5758 5754 5750 5746 5742 5737 5733 5729 5724 5719 5715 5710 5706 5701 5696 5692 5688 5683 5679 5675 5672
5800 5799 5799 5798 5797 5795 5794 5792 5790 5788 5785 5782 5780 5777 5774 5770 5767 5763 5760 5756 5753 5749 5745 5741 5737 5733 5728 5724 5719 5715 5710 5705 5700 5695 5690 5685 5679 5674 5669 5665 5660 5656 5652
5789 5789 5788 5786 5785 5784 5782 5780 5777 5775 5773 5770 5767 5764 5761 5758 5754 5750 5746 5742 5739 5735 5731 5727 5723 5719 5714 5709 5705 5700 5695 5689 5684 5679 5673 5667 5661 5655 5650 5645 5640 5636 5631
5778 5777 5776 5774 5773 5771 5769 5767 5765 5762 5760 5757 5754 5751 5748 5744 5740 5737 5733 5729 5725 5721 5717 5713 5708 5704 5699 5694 5689 5684 5678 5672 5667 5661 5655 5649 5642 5636 5631 5626 5621 5616 5611
5765 5764 5763 5761 5760 5758 5756 5754 5751 5749 5746 5743 5740 5737 5733 5730 5726 5722 5719 5715 5711 5706 5702 5697 5693 5687 5682 5677 5672 5666 5660 5654 5648 5641 5635 5629 5623 5617 5611 5606 5601 5596 5592
5752 5751 5749 5748 5746 5744 5742 5739 5737 5734 5731 5728 5725 5721 5718 5714 5711 5707 5703 5699 5694 5690 5685 5681 5676 5670 5665 5659 5653 5647 5641 5634 5628 5621 5615 5609 5603 5598 5592 5587 5582 5578 5573
5737 5736 5735 5733 5731 5729 5727 5724 5722 5719 5716 5713 5709 5706 5702 5698 5695 5691 5686 5682 5677 5673 5668 5662 5657 5652 5646 5639 5633 5627 5620 5614 5607 5601 5594 5589 5584 5578 5573 5568 5564 5559 5555
5722 5721 5719 5718 5715 5713 5711 5708 5705 5703 5699 5696 5692 5689 5685 5681 5677 5673 5669 5664 5659 5654 5649 5643 5638 5632 5626 5619 5613 5606 5600 5593 5586 5580 5574 5569 5564 5560 5555 5550 5546 5541 5538
5706 5705 5703 5701 5699 5697 5694 5691 5689 5686 5682 5679 5675 5671 5667 5663 5659 5655 5650 5645 5640 5635 5629 5623 5618 5612 5606 5599 5592 5586 5580 5573 5566 5560 5554 5550 5546 5541 5537 5532 5528 5524 5520
5690 5688 5686 5684 5682 5679 5677 5674 5671 5668 5664 5661 5657 5653 5649 5645 5641 5636 5631 5626 5621 5615 5609 5604 5597 5591 5585 5579 5573 5566 5560 5554 5548 5541 5535 5531 5527 5523 5519 5514 5510 5507 5504